Regional Weather Roundup
Issued by NWS

Home | Current Version | Previous Version | Graphics & Text | Print | Product List | Glossary Off
Versions: 1 2 3 4 5 6 7 8 9 10 11 12 13 14 15 16 17 18 19 20 21 22 23 24 25 26 27 28 29 30 31 32 33 34 35 36 37 38 39 40 41 42 43 44 45 46 47 48 49 50

000
ASUS43 KMPX 291801
RWRMN
WEATHER ROUNDUP FOR MINNESOTA
NATIONAL WEATHER SERVICE TWIN CITIES/CHANHASSEN MN
100 PM CDT MON MAY 29 2017


NOTE: "FAIR" INDICATES FEW OR NO CLOUDS BELOW 12,000 FEET WITH NO
SIGNIFICANT WEATHER AND/OR OBSTRUCTIONS TO VISIBILITY. N/A MEANS
CURRENT SKY AND/OR WEATHER CONDITIONS ARE NOT AVAILABLE.

MNZ060>063-068>070-291900-
   Twin Cities Metro

CITY           SKY/WX    TMP DP  RH WIND       PRES   REMARKS
TWIN CITIES    PTSUNNY   63  47  55 W20G25    29.81F
6HR MIN TEMP:  55; 6HR MAX TEMP:  64; 6HR PCP: TRACE;

ST PAUL        LGT RAIN  60  49  66 W20G25    29.81S
CRYSTAL        CLOUDY    62  45  53 W21G26    29.80S
BLAINE         CLOUDY    61  52  72 W12       29.81S
LAKEVILLE      PTSUNNY   63  48  59 W10G24    29.82F
EDEN PRAIRIE   PTSUNNY   63  50  62 W12G21    29.82S
6HR MIN TEMP:  55; 6HR MAX TEMP:  63; 6HR PCP: TRACE;

SOUTH ST PAUL  PTSUNNY   63  48  58 W10       29.80F
LAKE ELMO      LGT RAIN  57  50  77 W9        29.82S
$$
MNZ001>005-007-008-013>017-022>024-027-028-291900-
   Northwest Minnesota

CITY           SKY/WX    TMP DP  RH WIND       PRES   REMARKS
BEMIDJI        CLOUDY    50  43  78 NW17G24   29.80R
HALLOCK        PTSUNNY   57  48  72 N20G26    29.83F
ROSEAU         PTSUNNY   55  45  67 NW25      29.79R
WARROAD        PTSUNNY   55  43  62 W21G26    29.78F
CROOKSTON      PTSUNNY   55  50  82 NW20      29.85S
FOSSTON        CLOUDY    52  45  76 NW13G21   29.85S
DETROIT LAKES  CLOUDY    50  45  81 N16G24    29.89R
MOORHEAD       CLOUDY    55  48  76 NW16      29.90S
MAHNOMEN       CLOUDY    51  46  81 NW14      29.86R
$$
MNZ006-009>011-018-025>026-291900-
   North Central Minnesota

CITY           SKY/WX    TMP DP  RH WIND       PRES   REMARKS
FLAG ISLAND    CLOUDY    52  41  66 NW22      29.75S
INTL FALLS     CLOUDY    54  47  77 NW15      29.70S
6HR MIN TEMP:  49; 6HR MAX TEMP:  56; 6HR PCP:  0.13;

WASKISH        CLOUDY    52  45  76 W13G20    29.78R
BIG FORK       CLOUDY    54  46  76 W6          N/A
LONGVILLE      CLOUDY    55  46  71 NW8G17    29.78R
GRAND RAPIDS   CLOUDY    53  46  77 NW13G20   29.77R
CRANE LAKE     LGT RAIN  50  48  93 W7        29.70R
COOK           RAIN      50  48  93 W14       29.71S
WALKER         CLOUDY    53  45  75 NW17      29.79R
$$
MNZ012-019>021-037-291900-
   Northeast Minnesota

CITY           SKY/WX    TMP DP  RH WIND       PRES   REMARKS
DULUTH         LGT RAIN  55  50  83 W14       29.71R
6HR MIN TEMP:  52; 6HR MAX TEMP:  57; 6HR PCP: TRACE;

ELY            CLOUDY    50  48  93 W14G22    29.66S FOG
HIBBING        LGT RAIN  49  49 100 W10       29.72R
EVELETH        RAIN      53  49  87 W12       29.72R
DULUTH HARBOR  CLOUDY    61  52  72 W23G29    29.71R
TWO HARBORS    PTSUNNY   61  50  67 W14G21    29.66R
SILVER BAY     CLOUDY    61  48  63 W10G23    29.64R
GRAND MARAIS     N/A     58  55  90 W7        29.57S
G MARAIS ARPRT CLOUDY    54  46  76 W9G18     29.60S
$$
MNZ029>031-032-039>041-046>048-054>057-064-291900-
   West Central Minnesota

CITY           SKY/WX    TMP DP  RH WIND       PRES   REMARKS
FERGUS FALLS   CLOUDY    55  46  71 N18G25    29.89R
WHEATON        PTSUNNY   57  46  67 NW16G22   29.93R
MORRIS         LGT RAIN  55  48  76 NW25      29.90R
ALEXANDRIA     CLOUDY    55  50  83 NW20G26   29.88R
ELBOW LAKE     DRIZZLE   51  49  92 NW15G23   29.91R
WADENA         CLOUDY    54  45  71 NW18G25   29.84R
GLENWOOD       MOSUNNY   57  46  67 NW20G26   29.88R
APPLETON       CLOUDY    61  45  55 NW21G28   29.91R
BENSON         RAIN      55  46  71 N21       29.92R
ORTONVILLE     CLOUDY    57  46  67 NW22      29.93R
MADISON        PTSUNNY   63  50  63 NW18G30   29.92F
WILLMAR        FAIR      61  48  63 NW24G31   29.89S
$$
MNZ033>034-036-042>043-049>051-058-059-291900-
   Central Minnesota

CITY           SKY/WX    TMP DP  RH WIND       PRES   REMARKS
ST CLOUD       CLOUDY    59  49  69 NW15G25   29.82R
6HR MIN TEMP:  52; 6HR MAX TEMP:  60;

SAUK CENTRE    CLOUDY    58  48  68 NW18G24   29.85S
PAYNESVILLE    CLOUDY    60  46  60 W15G23    29.85F
AITKIN         PTSUNNY   57  46  67 W8        29.76R
PINE RIVER     CLOUDY    55  46  71 W12G20    29.83R
STAPLES        CLOUDY    55  45  67 W18       29.82R
LONG PRAIRIE   CLOUDY    57  45  62 W16       29.84S
LITTLE FALLS   CLOUDY    57  45  62 W16G23    29.82S
LITCHFIELD     CLOUDY    61  50  67 W15G25    29.86S
BUFFALO        CLOUDY    58  47  66 W14       29.84S
MAPLE LAKE     CLOUDY    59  50  71 W13G21    29.85R
HUTCHINSON     CLOUDY    62  47  59 NW20G26   29.87S
$$
MNZ037-044-045-052-053-291900-
   East Central Minnesota

CITY           SKY/WX    TMP DP  RH WIND       PRES   REMARKS
PRINCETON      CLOUDY    61  48  63 W15       29.81S
MORA           PTSUNNY   54  50  87 W5        29.79S
CAMBRIDGE      CLOUDY    63  48  59 W13G21    29.78S
RUSH CITY      PTSUNNY   60  51  71 W7        29.78F
MOOSE LAKE     CLOUDY    55  46  71 W7G17     29.74R
HINCKLEY       CLOUDY    61  48  63 W10G17    29.77R
CLOQUET        CLOUDY    57  46  67 W13G21    29.73R
MCGREGOR       CLOUDY    55  46  71 W13G18    29.77R
$$
MNZ071>073-080-081-089-090-097-098-291900-
   Southwest Minnesota

CITY           SKY/WX    TMP DP  RH WIND       PRES   REMARKS
MONTEVIDEO     PTSUNNY   63  48  59 NW16G22   29.91R
CANBY          CLOUDY    57  53  85 W14G22    29.95R
MARSHALL       LGT RAIN  60  49  66 NW15      29.93S
REDWOOD FALLS  CLOUDY    62  46  55 NW17G28   29.89S
OLIVIA         CLOUDY    59  46  63 NW16G33   29.89R
PIPESTONE      PTSUNNY   57  45  62 NW15G22   29.97S
WINDOM         LGT RAIN  57  48  72 W23       29.93S
JACKSON        CLOUDY    59  45  58 W20G26    29.94R
TRACY          LGT RAIN  57  51  81 NW15G25   29.95R
SLAYTON        CLOUDY    58  47  67 W18G25    29.96R
$$
MNZ065>067-074>077-082>085-091>093-291900-
   South Central Minnesota

CITY           SKY/WX    TMP DP  RH WIND       PRES   REMARKS
MANKATO        LGT RAIN  58  49  72 W15       29.87S
NEW ULM        LGT RAIN  59  48  67 NW20      29.89S
ST JAMES       PTSUNNY   61  46  59 W17G24    29.92R
FAIRMONT       CLOUDY    59  47  64 NW20G30   29.92R
GLENCOE        CLOUDY    59  51  73 NW22      29.85R
FARIBAULT      CLOUDY    64  48  55 W16G26    29.85F
OWATONNA       MOSUNNY   64  46  52 W21G26    29.85S
WASECA         PTSUNNY   63  43  48 NW26      29.87F
ALBERT LEA     MOSUNNY   64  50  59 NW10G20   29.88S
$$
MNZ078>079-086>088-094>096-291900-
   Southeast Minnesota

CITY           SKY/WX    TMP DP  RH WIND       PRES   REMARKS
ROCHESTER      LGT RAIN  60  47  61 W20       29.85S
6HR MIN TEMP:  52; 6HR MAX TEMP:  63; 6HR PCP: TRACE;

RED WING       CLOUDY    63  48  59 W15G22    29.80F
STANTON        CLOUDY    62  48  59 W20G25    29.82F
DODGE CENTER   PTSUNNY   59  46  63 W14G22    29.85S
WINONA         PTSUNNY   63  46  55 NW9       29.82S
AUSTIN         PTSUNNY   63  48  59 W18G25    29.87S
PRESTON        PTSUNNY   60  46  59 W17G26    29.86S
$$
ABBREVIATIONS USED IN REMARKS
   TC - TEMPERATURES IN CELSIUS
  WCI - WIND CHILL INDEX
   HX - HEAT INDEX
  VSB - VISIBILITY
$$




USA.gov is the U.S. government's official web portal to all federal, state and local government web resources and services.